This is the latest recevied weather packets stored in our database for station/object KA3RQR. If no packets are shown the sender has not sent any weather packets the latest 10 day(s).
| Time | Temp. | Humidity | Pressure | Rain* | Wind** | Luminosity | Snow |
|---|---|---|---|---|---|---|---|
| 1778111274 | 20° C | 85% | 1009.3 hPa | 0 mm | - | 2 W/m² | - |
| 1778110971 | 20° C | 85% | 1009.1 hPa | 0 mm | - | 3 W/m² | - |
| 1778110669 | 20° C | 85% | 1008.9 hPa | 0 mm | - | 3 W/m² | - |
| 1778110365 | 20° C | 86% | 1008.8 hPa | 0 mm | - | 5 W/m² | - |
| 1778110062 | 20° C | 85% | 1008.5 hPa | 0 mm | - | 6 W/m² | - |
| 1778109756 | 20° C | 85% | 1008.9 hPa | 0 mm | - | 6 W/m² | - |
| 1778109454 | 20° C | 85% | 1008.8 hPa | 0 mm | - | 6 W/m² | - |
| 1778109152 | 20° C | 85% | 1008.6 hPa | 0 mm | - | 7 W/m² | - |
| 1778108849 | 20° C | 84% | 1008.3 hPa | 0 mm | - | 5 W/m² | - |
| 1778108546 | 20° C | 85% | 1008.4 hPa | 0 mm | - | 6 W/m² | - |
| 1778108242 | 20° C | 84% | 1008.4 hPa | 0 mm | - | 16 W/m² | - |
| 1778107940 | 20° C | 84% | 1008.5 hPa | 0 mm | - | 12 W/m² | - |
| 1778107635 | 20° C | 85% | 1008.4 hPa | 0 mm | - | 29 W/m² | - |
| 1778107333 | 20° C | 84% | 1008.4 hPa | 0 mm | - | 44 W/m² | - |
| 1778107029 | 20° C | 84% | 1008.3 hPa | 0 mm | - | 30 W/m² | - |
| 1778106725 | 20° C | 84% | 1008.3 hPa | 0 mm | - | 44 W/m² | - |
| 1778106422 | 20° C | 84% | 1008.7 hPa | 0 mm | - | 26 W/m² | - |
| 1778106117 | 20° C | 84% | 1008.5 hPa | 0 mm | - | 22 W/m² | - |
| 1778105816 | 20° C | 84% | 1008.3 hPa | 0 mm | - | 36 W/m² | - |
| 1778105514 | 20.56° C | 84% | 1008.3 hPa | 0 mm | - | 55 W/m² | - |
| 1778105210 | 20.56° C | 82% | 1008.2 hPa | 0 mm | - | 55 W/m² | - |
| 1778104905 | 20.56° C | 83% | 1008.3 hPa | 0 mm | - | 138 W/m² | - |
| 1778104602 | 20.56° C | 83% | 1008.3 hPa | 0 mm | - | 116 W/m² | - |
| 1778104297 | 20.56° C | 82% | 1008.5 hPa | 0 mm | - | 108 W/m² | - |
| 1778103994 | 21.11° C | 82% | 1008.3 hPa | 0 mm | - | 111 W/m² | - |
* Rain latest hour (hover to see other rain measurements)
** Current wind speed in m/s (hover to see current wind gust speed)